Location: Arbon
(43.0005°N, 0.7472°E)
Time: 21:08:08
(UTC+00:00)

Explorer 7 - Pass Details

Date: 26 November 2020
Orbit: 484 x 678 km, 50.3° (Epoch: 25 January)

Event Time Altitude Azimuth Distance (km) Brightness Sun altitude
Rises 02:38:52 0° 228° (SW) 2,914 - -47.6°
Reaches altitude 10° 02:41:15 10° 226° (SW) 1,980 - -47.2°
Maximum altitude 02:45:44 64° 146° (SE) 660 - -46.4°
Drops below altitude 10° 02:49:58 10° 64° (ENE) 1,866 - -45.7°
Exits shadow 02:52:05 - 62° (ENE) 2,698 11.1 -45.3°
Sets 02:52:10 0° 62° (ENE) 2,731 11.1 -45.3°
